IBE1517 LEAL-LEST

Flight info

Callsign IBE1517
Flight time 1h 27m
Altitude 24000
Route ASTRO L150 CJN DCT DISKO DCT UNSOL DCT ZANKO DCT ZMR DCT DESAT DCT FORNO
Aircraft CRJX/M-SDFGIRWY/S

Departure

Time 2026-05-07 16:58
Airport Alicante-Elche Miguel Hernández Airport (LEAL)

Arrival

Time 2026-05-07 18:25
Airport Santiago-Rosalía de Castro Airport (LEST)
Time Latitude Longitude Altitude Speed Heading
2026-05-07 16:42 38.28413 -0.55388 90 ft 0 kts 230°
2026-05-07 16:49 38.28407 -0.55435 92 ft 7 kts 280°
2026-05-07 16:50 38.28440 -0.55479 93 ft 15 kts 327°
2026-05-07 16:50 38.28479 -0.55577 96 ft 11 kts 245°
2026-05-07 16:50 38.28449 -0.55599 96 ft 5 kts 190°
2026-05-07 16:50 38.28405 -0.55610 97 ft 8 kts 196°
2026-05-07 16:51 38.28373 -0.55652 100 ft 6 kts 265°
2026-05-07 16:51 38.28380 -0.55714 100 ft 8 kts 279°
2026-05-07 16:51 38.28397 -0.55838 102 ft 20 kts 279°
2026-05-07 16:51 38.28421 -0.56020 106 ft 22 kts 280°
2026-05-07 16:52 38.28447 -0.56229 107 ft 25 kts 283°
2026-05-07 16:52 38.28484 -0.56452 115 ft 27 kts 281°
2026-05-07 16:52 38.28517 -0.56695 119 ft 29 kts 279°
2026-05-07 16:52 38.28550 -0.56947 132 ft 27 kts 279°
2026-05-07 16:53 38.28558 -0.57011 135 ft 0 kts 279°
2026-05-07 16:53 38.28559 -0.57015 135 ft 0 kts 279°
2026-05-07 16:54 38.28563 -0.57041 136 ft 10 kts 282°
2026-05-07 16:54 38.28587 -0.57197 143 ft 24 kts 280°
2026-05-07 16:54 38.28612 -0.57365 149 ft 17 kts 279°
2026-05-07 16:55 38.28596 -0.57416 151 ft 4 kts 207°
2026-05-07 16:55 38.28562 -0.57425 152 ft 6 kts 190°
2026-05-07 16:55 38.28556 -0.57427 152 ft 0 kts 190°
2026-05-07 16:55 38.28555 -0.57427 152 ft 1 kts 190°
2026-05-07 16:56 38.28554 -0.57427 152 ft 0 kts 190°
2026-05-07 16:56 38.28552 -0.57428 152 ft 1 kts 190°
2026-05-07 16:56 38.28546 -0.57429 152 ft 3 kts 189°
2026-05-07 16:57 38.28516 -0.57435 153 ft 7 kts 188°
2026-05-07 16:57 38.28448 -0.57410 152 ft 14 kts 126°
2026-05-07 16:57 38.28404 -0.57150 140 ft 67 kts 101°
2026-05-07 16:57 38.28264 -0.56163 163 ft 149 kts 99°
2026-05-07 16:58 38.28111 -0.54959 1353 ft 129 kts 96°
2026-05-07 16:58 38.27956 -0.53785 2242 ft 142 kts 95°
2026-05-07 16:58 38.27798 -0.52506 3135 ft 148 kts 95°
2026-05-07 16:58 38.27637 -0.51202 4099 ft 150 kts 95°
2026-05-07 16:59 38.27476 -0.49889 5037 ft 152 kts 96°
2026-05-07 16:59 38.27305 -0.48449 5586 ft 181 kts 96°
2026-05-07 16:59 38.27111 -0.46679 5813 ft 224 kts 96°
2026-05-07 16:59 38.26865 -0.44615 6510 ft 238 kts 98°
2026-05-07 17:00 38.26229 -0.42754 7947 ft 231 kts 133°
2026-05-07 17:00 38.24837 -0.41792 9122 ft 233 kts 173°
2026-05-07 17:00 38.23272 -0.42128 10211 ft 231 kts 211°
2026-05-07 17:00 38.22227 -0.43622 11193 ft 231 kts 250°
2026-05-07 17:01 38.22160 -0.45611 12141 ft 235 kts 288°
2026-05-07 17:01 38.23065 -0.47384 12960 ft 249 kts 310°
2026-05-07 17:01 38.24209 -0.49121 13665 ft 262 kts 306°
2026-05-07 17:01 38.25292 -0.51014 14455 ft 266 kts 301°
2026-05-07 17:02 38.26134 -0.53116 15279 ft 267 kts 289°
2026-05-07 17:02 38.26700 -0.55376 16097 ft 270 kts 287°
2026-05-07 17:02 38.27715 -0.57402 16875 ft 277 kts 310°
2026-05-07 17:02 38.29095 -0.59154 17695 ft 282 kts 316°
2026-05-07 17:03 38.30660 -0.60693 18485 ft 288 kts 323°
2026-05-07 17:03 38.32345 -0.62118 19205 ft 292 kts 324°
2026-05-07 17:03 38.34049 -0.63550 19948 ft 295 kts 324°
2026-05-07 17:03 38.35722 -0.65032 20648 ft 298 kts 322°
2026-05-07 17:04 38.37414 -0.66587 21326 ft 302 kts 322°
2026-05-07 17:04 38.39132 -0.68167 21975 ft 305 kts 322°
2026-05-07 17:04 38.40872 -0.69759 22592 ft 309 kts 323°
2026-05-07 17:04 38.42634 -0.71366 23233 ft 313 kts 322°
2026-05-07 17:05 38.44413 -0.72993 23888 ft 314 kts 323°
2026-05-07 17:05 38.46195 -0.74586 24541 ft 313 kts 322°
2026-05-07 17:05 38.47978 -0.76198 25085 ft 314 kts 321°
2026-05-07 17:05 38.49755 -0.77792 25766 ft 309 kts 320°
2026-05-07 17:06 38.51506 -0.79377 26381 ft 307 kts 319°
2026-05-07 17:06 38.53247 -0.80951 26946 ft 306 kts 319°
2026-05-07 17:06 38.54978 -0.82527 27484 ft 305 kts 319°
2026-05-07 17:06 38.56695 -0.84102 28012 ft 304 kts 318°
2026-05-07 17:07 38.58395 -0.85655 28522 ft 303 kts 318°
2026-05-07 17:07 38.60109 -0.87218 28992 ft 302 kts 318°
2026-05-07 17:07 38.61827 -0.88784 29429 ft 302 kts 318°
2026-05-07 17:07 38.63539 -0.90348 29839 ft 302 kts 318°
2026-05-07 17:08 38.65244 -0.91912 30170 ft 303 kts 318°
2026-05-07 17:08 38.66978 -0.93516 30169 ft 312 kts 317°
2026-05-07 17:08 38.68739 -0.95163 30332 ft 314 kts 317°
2026-05-07 17:08 38.70507 -0.96808 30538 ft 314 kts 317°
2026-05-07 17:09 38.71678 -0.97902 30674 ft 315 kts 317°
2026-05-07 17:09 38.73460 -0.99542 30886 ft 315 kts 317°
2026-05-07 17:09 38.75244 -1.01184 31077 ft 316 kts 318°
2026-05-07 17:09 38.77034 -1.02825 31278 ft 316 kts 317°
2026-05-07 17:10 38.78824 -1.04473 31471 ft 316 kts 317°
2026-05-07 17:10 38.80615 -1.06126 31604 ft 319 kts 317°
2026-05-07 17:10 38.82399 -1.07769 31767 ft 320 kts 317°
2026-05-07 17:10 38.84201 -1.09431 32018 ft 318 kts 317°
2026-05-07 17:11 38.85996 -1.11086 32241 ft 317 kts 317°
2026-05-07 17:11 38.87785 -1.12737 32458 ft 316 kts 317°
2026-05-07 17:11 38.89578 -1.14394 32595 ft 319 kts 317°
2026-05-07 17:11 38.91373 -1.16061 32827 ft 316 kts 317°
2026-05-07 17:12 38.93163 -1.17707 33050 ft 315 kts 317°
2026-05-07 17:12 38.94941 -1.19351 33275 ft 314 kts 317°
2026-05-07 17:12 38.96710 -1.20993 33469 ft 313 kts 317°
2026-05-07 17:12 38.98479 -1.22634 33656 ft 313 kts 317°
2026-05-07 17:13 39.00241 -1.24269 33804 ft 313 kts 317°
2026-05-07 17:13 39.02012 -1.25910 33910 ft 315 kts 317°
2026-05-07 17:13 39.05583 -1.29229 33968 ft 322 kts 317°
2026-05-07 17:14 39.09270 -1.32664 33982 ft 330 kts 317°
2026-05-07 17:14 39.13040 -1.36184 34005 ft 339 kts 318°
2026-05-07 17:15 39.16910 -1.39798 33991 ft 347 kts 318°
2026-05-07 17:15 39.20872 -1.43499 33988 ft 355 kts 318°
2026-05-07 17:16 39.24882 -1.47256 33983 ft 361 kts 318°
2026-05-07 17:16 39.28973 -1.51100 33981 ft 366 kts 318°
2026-05-07 17:17 39.33130 -1.54990 33998 ft 371 kts 318°
2026-05-07 17:17 39.37320 -1.58935 34003 ft 375 kts 318°
2026-05-07 17:18 39.41535 -1.62906 33978 ft 378 kts 318°
2026-05-07 17:18 39.45822 -1.66942 33993 ft 382 kts 318°
2026-05-07 17:19 39.50129 -1.71009 34002 ft 385 kts 318°
2026-05-07 17:19 39.54472 -1.75126 33996 ft 387 kts 318°
2026-05-07 17:20 39.58821 -1.79236 34001 ft 390 kts 319°
2026-05-07 17:20 39.63222 -1.83415 33988 ft 393 kts 319°
2026-05-07 17:21 39.67653 -1.87625 33990 ft 396 kts 319°
2026-05-07 17:21 39.72106 -1.91865 33977 ft 397 kts 319°
2026-05-07 17:22 39.76569 -1.96110 33984 ft 397 kts 319°
2026-05-07 17:22 39.81028 -2.00377 33997 ft 399 kts 319°
2026-05-07 17:23 39.85514 -2.04665 33982 ft 400 kts 319°
2026-05-07 17:23 39.89975 -2.08943 33980 ft 401 kts 319°
2026-05-07 17:24 39.94475 -2.13259 33972 ft 401 kts 319°
2026-05-07 17:24 39.98974 -2.17582 33963 ft 402 kts 319°
2026-05-07 17:25 40.03482 -2.21921 33970 ft 402 kts 319°
2026-05-07 17:25 40.07992 -2.26272 33962 ft 403 kts 319°
2026-05-07 17:26 40.12479 -2.30608 33941 ft 403 kts 319°
2026-05-07 17:26 40.16984 -2.34965 33959 ft 402 kts 319°
2026-05-07 17:27 40.21472 -2.39310 33946 ft 401 kts 319°
2026-05-07 17:27 40.25964 -2.43656 33958 ft 402 kts 319°
2026-05-07 17:28 40.30469 -2.48003 33946 ft 402 kts 319°
2026-05-07 17:28 40.34674 -2.52679 33945 ft 395 kts 307°
2026-05-07 17:29 40.38050 -2.58366 33948 ft 395 kts 305°
2026-05-07 17:29 40.41212 -2.64238 33944 ft 393 kts 297°
2026-05-07 17:30 40.43632 -2.70658 33940 ft 392 kts 294°
2026-05-07 17:30 40.46037 -2.77084 33939 ft 392 kts 296°
2026-05-07 17:31 40.48535 -2.83457 33925 ft 392 kts 296°
2026-05-07 17:31 40.51019 -2.89828 33926 ft 392 kts 296°
2026-05-07 17:32 40.53503 -2.96209 33928 ft 392 kts 296°
2026-05-07 17:32 40.55962 -3.02546 33928 ft 392 kts 296°
2026-05-07 17:33 40.58040 -3.07904 33925 ft 391 kts 296°
2026-05-07 17:33 40.59628 -3.12003 33922 ft 390 kts 296°
2026-05-07 17:34 40.62086 -3.18372 33930 ft 390 kts 296°
2026-05-07 17:34 40.64540 -3.24744 33917 ft 390 kts 296°
2026-05-07 17:35 40.66970 -3.31062 33915 ft 389 kts 296°
2026-05-07 17:35 40.69410 -3.37427 33923 ft 389 kts 296°
2026-05-07 17:36 40.71847 -3.43784 33887 ft 388 kts 296°
2026-05-07 17:36 40.74268 -3.50125 33923 ft 386 kts 296°
2026-05-07 17:37 40.76680 -3.56440 33922 ft 384 kts 296°
2026-05-07 17:37 40.79059 -3.62699 33936 ft 383 kts 296°
2026-05-07 17:38 40.81442 -3.68981 33926 ft 382 kts 295°
2026-05-07 17:38 40.83820 -3.75255 33928 ft 381 kts 296°
2026-05-07 17:39 40.86190 -3.81504 33927 ft 380 kts 295°
2026-05-07 17:39 40.88548 -3.87760 33926 ft 379 kts 295°
2026-05-07 17:40 40.90890 -3.93996 33879 ft 377 kts 295°
2026-05-07 17:40 40.93258 -4.00177 33922 ft 377 kts 295°
2026-05-07 17:41 40.95590 -4.06383 33926 ft 377 kts 295°
2026-05-07 17:41 40.97904 -4.12597 33920 ft 376 kts 295°
2026-05-07 17:42 41.00207 -4.18767 33920 ft 376 kts 295°
2026-05-07 17:42 41.02526 -4.24980 33918 ft 376 kts 295°
2026-05-07 17:43 41.04838 -4.31199 33914 ft 376 kts 295°
2026-05-07 17:43 41.07148 -4.37428 33922 ft 377 kts 295°
2026-05-07 17:44 41.09455 -4.43651 33914 ft 378 kts 295°
2026-05-07 17:44 41.11770 -4.49912 33912 ft 378 kts 295°
2026-05-07 17:45 41.14082 -4.56184 33912 ft 379 kts 295°
2026-05-07 17:45 41.16399 -4.62465 33899 ft 378 kts 295°
2026-05-07 17:46 41.18699 -4.68735 33907 ft 377 kts 295°
2026-05-07 17:46 41.20993 -4.75008 33907 ft 377 kts 295°
2026-05-07 17:47 41.23269 -4.81237 33907 ft 377 kts 295°
2026-05-07 17:47 41.25553 -4.87504 33921 ft 377 kts 295°
2026-05-07 17:48 41.27836 -4.93785 33905 ft 378 kts 295°
2026-05-07 17:48 41.30125 -5.00074 33896 ft 377 kts 294°
2026-05-07 17:49 41.32401 -5.06365 33903 ft 377 kts 294°
2026-05-07 17:49 41.34675 -5.12662 33910 ft 377 kts 294°
2026-05-07 17:50 41.36945 -5.18958 33905 ft 378 kts 294°
2026-05-07 17:50 41.39217 -5.25271 33903 ft 378 kts 294°
2026-05-07 17:51 41.41484 -5.31587 33903 ft 378 kts 294°
2026-05-07 17:51 41.43750 -5.37906 33897 ft 378 kts 294°
2026-05-07 17:52 41.45998 -5.44203 33899 ft 379 kts 294°
2026-05-07 17:52 41.48263 -5.50562 33883 ft 379 kts 294°
2026-05-07 17:53 41.50528 -5.56922 33877 ft 380 kts 294°
2026-05-07 17:53 41.52859 -5.63242 33875 ft 380 kts 298°
2026-05-07 17:54 41.55716 -5.69208 33878 ft 382 kts 302°
2026-05-07 17:54 41.58794 -5.74993 33866 ft 382 kts 302°
2026-05-07 17:55 41.61881 -5.80782 33875 ft 382 kts 302°
2026-05-07 17:55 41.64920 -5.86579 33880 ft 383 kts 302°
2026-05-07 17:56 41.67972 -5.92435 33868 ft 384 kts 302°
2026-05-07 17:56 41.71022 -5.98306 33869 ft 384 kts 302°
2026-05-07 17:57 41.73558 -6.03196 33868 ft 385 kts 302°
2026-05-07 17:57 41.75088 -6.06147 33736 ft 385 kts 302°
2026-05-07 17:57 41.76613 -6.09101 33420 ft 387 kts 302°
2026-05-07 17:58 41.78160 -6.12098 32621 ft 398 kts 302°
2026-05-07 17:58 41.79775 -6.15231 31683 ft 414 kts 302°
2026-05-07 17:58 41.81421 -6.18423 31201 ft 418 kts 302°
2026-05-07 17:58 41.83079 -6.21645 30606 ft 424 kts 303°
2026-05-07 17:59 41.84741 -6.24906 30194 ft 421 kts 303°
2026-05-07 17:59 41.86381 -6.28096 29625 ft 420 kts 303°
2026-05-07 17:59 41.88039 -6.31311 29049 ft 418 kts 303°
2026-05-07 17:59 41.89691 -6.34534 28469 ft 417 kts 303°
2026-05-07 18:00 41.91336 -6.37741 27965 ft 416 kts 303°
2026-05-07 18:00 41.92964 -6.40945 27386 ft 413 kts 303°
2026-05-07 18:00 41.94570 -6.44142 26757 ft 411 kts 303°
2026-05-07 18:00 41.96171 -6.47317 26127 ft 410 kts 303°
2026-05-07 18:01 41.97786 -6.50485 25528 ft 410 kts 304°
2026-05-07 18:01 41.99400 -6.53641 25015 ft 409 kts 304°
2026-05-07 18:01 42.00991 -6.56755 24523 ft 408 kts 304°
2026-05-07 18:01 42.02592 -6.59895 24043 ft 407 kts 304°
2026-05-07 18:02 42.05780 -6.66177 23087 ft 405 kts 304°
2026-05-07 18:02 42.07362 -6.69293 22622 ft 402 kts 304°
2026-05-07 18:02 42.08935 -6.72394 22228 ft 399 kts 304°
2026-05-07 18:03 42.10493 -6.75467 21791 ft 396 kts 304°
2026-05-07 18:03 42.12043 -6.78528 21416 ft 393 kts 303°
2026-05-07 18:03 42.13580 -6.81571 21006 ft 392 kts 303°
2026-05-07 18:03 42.15109 -6.84600 20546 ft 393 kts 303°
2026-05-07 18:04 42.16651 -6.87673 20059 ft 396 kts 303°
2026-05-07 18:04 42.18180 -6.90701 19661 ft 397 kts 303°
2026-05-07 18:04 42.19719 -6.93761 19359 ft 394 kts 303°
2026-05-07 18:04 42.21261 -6.96834 19023 ft 393 kts 302°
2026-05-07 18:05 42.22794 -6.99882 18720 ft 392 kts 302°
2026-05-07 18:05 42.24318 -7.02933 18400 ft 392 kts 302°
2026-05-07 18:05 42.25848 -7.05988 17908 ft 395 kts 302°
2026-05-07 18:05 42.27393 -7.09072 17504 ft 396 kts 302°
2026-05-07 18:06 42.28946 -7.12188 16764 ft 404 kts 302°
2026-05-07 18:06 42.30513 -7.15318 16192 ft 401 kts 302°
2026-05-07 18:06 42.32067 -7.18428 15563 ft 399 kts 302°
2026-05-07 18:06 42.33614 -7.21530 14984 ft 395 kts 302°
2026-05-07 18:07 42.35129 -7.24575 14366 ft 395 kts 302°
2026-05-07 18:07 42.36653 -7.27645 13813 ft 392 kts 302°
2026-05-07 18:07 42.38168 -7.30694 13249 ft 388 kts 302°
2026-05-07 18:07 42.39671 -7.33716 12695 ft 384 kts 302°
2026-05-07 18:08 42.41152 -7.36705 12135 ft 380 kts 302°
2026-05-07 18:08 42.42616 -7.39659 11707 ft 374 kts 302°
2026-05-07 18:08 42.44038 -7.42537 11523 ft 362 kts 302°
2026-05-07 18:08 42.45413 -7.45321 11426 ft 349 kts 302°
2026-05-07 18:09 42.46709 -7.48051 11385 ft 339 kts 295°
2026-05-07 18:09 42.47521 -7.50989 11376 ft 328 kts 284°
2026-05-07 18:09 42.48088 -7.53919 11382 ft 322 kts 281°
2026-05-07 18:09 42.48610 -7.56851 11381 ft 318 kts 281°
2026-05-07 18:10 42.49121 -7.59750 11389 ft 314 kts 281°
2026-05-07 18:10 42.49650 -7.62621 11294 ft 315 kts 282°
2026-05-07 18:10 42.50200 -7.65487 11152 ft 316 kts 282°
2026-05-07 18:10 42.50776 -7.68409 10746 ft 325 kts 283°
2026-05-07 18:11 42.51365 -7.71388 10497 ft 327 kts 282°
2026-05-07 18:11 42.51754 -7.73354 10386 ft 326 kts 282°
2026-05-07 18:11 42.52533 -7.77314 10155 ft 325 kts 282°
2026-05-07 18:11 42.53110 -7.80267 9981 ft 324 kts 282°
2026-05-07 18:12 42.53690 -7.83215 9801 ft 323 kts 282°
2026-05-07 18:12 42.54263 -7.86154 9620 ft 321 kts 282°
2026-05-07 18:12 42.54837 -7.89081 9409 ft 320 kts 282°
2026-05-07 18:12 42.55395 -7.91959 9222 ft 319 kts 282°
2026-05-07 18:13 42.55964 -7.94867 9035 ft 318 kts 282°
2026-05-07 18:13 42.56524 -7.97762 8842 ft 316 kts 282°
2026-05-07 18:13 42.57085 -8.00644 8632 ft 315 kts 282°
2026-05-07 18:13 42.57640 -8.03514 8399 ft 314 kts 282°
2026-05-07 18:14 42.58190 -8.06377 8199 ft 313 kts 282°
2026-05-07 18:14 42.58734 -8.09220 7952 ft 310 kts 282°
2026-05-07 18:14 42.59294 -8.12041 7533 ft 308 kts 283°
2026-05-07 18:14 42.59844 -8.14841 7117 ft 306 kts 283°
2026-05-07 18:15 42.60393 -8.17615 6720 ft 303 kts 283°
2026-05-07 18:15 42.60934 -8.20377 6486 ft 302 kts 283°
2026-05-07 18:15 42.61466 -8.23122 6267 ft 300 kts 283°
2026-05-07 18:15 42.61988 -8.25828 5980 ft 299 kts 282°
2026-05-07 18:16 42.62506 -8.28557 5683 ft 297 kts 283°
2026-05-07 18:16 42.63340 -8.31082 5550 ft 293 kts 304°
2026-05-07 18:16 42.64603 -8.33207 5500 ft 285 kts 307°
2026-05-07 18:16 42.66074 -8.34961 5451 ft 282 kts 332°
2026-05-07 18:17 42.67976 -8.35517 5461 ft 279 kts 355°
2026-05-07 18:17 42.69905 -8.35507 5460 ft 275 kts 360°
2026-05-07 18:17 42.71737 -8.36025 5446 ft 268 kts 332°
2026-05-07 18:17 42.73272 -8.37428 5424 ft 265 kts 321°
2026-05-07 18:18 42.74756 -8.38867 5374 ft 265 kts 323°
2026-05-07 18:18 42.76399 -8.40030 4793 ft 273 kts 337°
2026-05-07 18:18 42.78354 -8.40533 3817 ft 290 kts 359°
2026-05-07 18:18 42.80262 -8.39822 3289 ft 283 kts 28°
2026-05-07 18:19 42.81939 -8.38610 3231 ft 260 kts 22°
2026-05-07 18:19 42.83630 -8.38233 3096 ft 243 kts 352°
2026-05-07 18:19 42.85215 -8.39023 2465 ft 247 kts 330°
2026-05-07 18:19 42.86634 -8.40303 2276 ft 232 kts 316°
2026-05-07 18:20 42.87392 -8.42166 2494 ft 232 kts 279°
2026-05-07 18:20 42.87244 -8.44367 2670 ft 239 kts 253°
2026-05-07 18:20 42.86531 -8.46430 2981 ft 239 kts 242°
2026-05-07 18:20 42.85786 -8.48446 3311 ft 240 kts 235°
2026-05-07 18:21 42.84502 -8.49864 3482 ft 240 kts 203°
2026-05-07 18:21 42.82836 -8.50172 3490 ft 248 kts 173°
2026-05-07 18:21 42.81224 -8.49694 3447 ft 233 kts 167°
2026-05-07 18:21 42.79687 -8.49062 3384 ft 230 kts 156°
2026-05-07 18:22 42.78501 -8.47597 3102 ft 234 kts 121°
2026-05-07 18:22 42.78115 -8.46231 2948 ft 234 kts 103°
2026-05-07 18:22 42.77854 -8.43303 2592 ft 233 kts 84°
2026-05-07 18:22 42.78459 -8.41301 2429 ft 229 kts 49°
2026-05-07 18:23 42.79701 -8.40046 2356 ft 219 kts 27°
2026-05-07 18:23 42.81010 -8.39089 2313 ft 212 kts 26°
2026-05-07 18:23 42.82351 -8.38563 2282 ft 191 kts 357°
2026-05-07 18:23 42.83542 -8.38977 2313 ft 161 kts 340°
2026-05-07 18:24 42.84562 -8.39409 2101 ft 144 kts 340°
2026-05-07 18:24 42.85460 -8.39817 1862 ft 128 kts 341°
2026-05-07 18:24 42.86243 -8.40225 1655 ft 113 kts 338°
2026-05-07 18:24 42.86992 -8.40596 1486 ft 121 kts 340°
2026-05-07 18:25 42.87828 -8.40911 1390 ft 129 kts 346°
2026-05-07 18:25 42.88718 -8.41209 1257 ft 132 kts 347°
2026-05-07 18:25 42.89563 -8.41491 1190 ft 113 kts 346°
2026-05-07 18:25 42.89914 -8.41603 1190 ft 23 kts 346°
2026-05-07 18:26 42.90017 -8.41723 1189 ft 20 kts 266°
2026-05-07 18:26 42.89963 -8.41846 1195 ft 10 kts 188°
2026-05-07 18:26 42.89888 -8.41829 1195 ft 12 kts 168°
2026-05-07 18:26 42.89798 -8.41802 1195 ft 14 kts 166°
2026-05-07 18:27 42.89693 -8.41766 1195 ft 17 kts 166°
2026-05-07 18:27 42.89574 -8.41725 1195 ft 19 kts 166°
2026-05-07 18:27 42.89462 -8.41770 1200 ft 16 kts 243°
2026-05-07 18:27 42.89440 -8.41860 1204 ft 15 kts 255°
2026-05-07 18:28 42.89385 -8.42020 1206 ft 9 kts 217°
2026-05-07 18:28 42.89334 -8.42021 1204 ft 8 kts 166°
2026-05-07 18:28 42.89293 -8.42007 1204 ft 0 kts 167°